BTK6225 WADD-WAAA

Flight info

Callsign BTK6225
Flight time 0h 58m
Altitude 39000
Route PEDET3A/09 PEDET W41 LIPOT
Aircraft A320/M-SDE2E3FGHIRWXY/LB1

Departure

Time 2026-04-22 13:04
Airport Denpasar I Gusti Ngurah Rai International Airport (WADD)

Arrival

Time 2026-04-22 14:03
Airport Sultan Hasanuddin International Airport (WAAA)
Time Latitude Longitude Altitude Speed Heading
2026-04-22 12:37 -8.74563 115.16406 33 ft 0 kts 358°
2026-04-22 12:54 -8.74568 115.16406 33 ft 2 kts 357°
2026-04-22 12:54 -8.74584 115.16407 32 ft 2 kts 357°
2026-04-22 12:54 -8.74601 115.16408 30 ft 2 kts 357°
2026-04-22 12:55 -8.74617 115.16409 30 ft 2 kts 356°
2026-04-22 12:55 -8.74634 115.16410 32 ft 2 kts 355°
2026-04-22 12:55 -8.74650 115.16412 29 ft 2 kts 353°
2026-04-22 12:55 -8.74666 115.16414 29 ft 2 kts 347°
2026-04-22 12:56 -8.74682 115.16419 31 ft 2 kts 323°
2026-04-22 12:56 -8.74690 115.16431 30 ft 1 kts 275°
2026-04-22 12:56 -8.74691 115.16437 30 ft 0 kts 270°
2026-04-22 12:58 -8.74691 115.16427 30 ft 4 kts 270°
2026-04-22 12:58 -8.74693 115.16386 32 ft 8 kts 267°
2026-04-22 12:59 -8.74696 115.16317 32 ft 12 kts 268°
2026-04-22 12:59 -8.74700 115.16220 32 ft 16 kts 267°
2026-04-22 12:59 -8.74705 115.16100 32 ft 19 kts 268°
2026-04-22 12:59 -8.74709 115.15958 32 ft 19 kts 268°
2026-04-22 13:00 -8.74716 115.15836 32 ft 16 kts 268°
2026-04-22 13:00 -8.74720 115.15719 32 ft 18 kts 268°
2026-04-22 13:00 -8.74725 115.15587 32 ft 18 kts 267°
2026-04-22 13:00 -8.74731 115.15471 32 ft 12 kts 267°
2026-04-22 13:01 -8.74759 115.15401 32 ft 11 kts 217°
2026-04-22 13:01 -8.74795 115.15392 31 ft 0 kts 180°
2026-04-22 13:01 -8.74796 115.15392 31 ft 1 kts 180°
2026-04-22 13:02 -8.74828 115.15392 29 ft 8 kts 180°
2026-04-22 13:02 -8.74893 115.15415 28 ft 12 kts 119°
2026-04-22 13:02 -8.74896 115.15449 28 ft 0 kts 84°
2026-04-22 13:03 -8.74896 115.15450 28 ft 1 kts 84°
2026-04-22 13:03 -8.74891 115.15501 29 ft 28 kts 86°
2026-04-22 13:03 -8.74874 115.15962 29 ft 100 kts 88°
2026-04-22 13:03 -8.74836 115.16854 29 ft 152 kts 87°
2026-04-22 13:04 -8.74798 115.18009 316 ft 173 kts 88°
2026-04-22 13:04 -8.74782 115.19254 835 ft 182 kts 88°
2026-04-22 13:04 -8.74724 115.20519 1630 ft 174 kts 86°
2026-04-22 13:04 -8.74630 115.21744 2247 ft 181 kts 85°
2026-04-22 13:05 -8.74536 115.23086 2599 ft 202 kts 85°
2026-04-22 13:05 -8.74453 115.24595 2961 ft 227 kts 86°
2026-04-22 13:05 -8.74380 115.26270 3514 ft 250 kts 87°
2026-04-22 13:05 -8.74310 115.28087 4277 ft 264 kts 87°
2026-04-22 13:06 -8.74241 115.29951 5335 ft 267 kts 87°
2026-04-22 13:06 -8.74171 115.31842 6345 ft 271 kts 87°
2026-04-22 13:06 -8.74100 115.33736 7258 ft 276 kts 87°
2026-04-22 13:06 -8.74027 115.35685 8195 ft 279 kts 87°
2026-04-22 13:07 -8.73952 115.37661 9126 ft 284 kts 87°
2026-04-22 13:07 -8.73876 115.39671 10045 ft 288 kts 87°
2026-04-22 13:07 -8.73796 115.41746 10605 ft 306 kts 87°
2026-04-22 13:07 -8.73711 115.43974 10910 ft 329 kts 87°
2026-04-22 13:08 -8.73621 115.46340 11424 ft 342 kts 87°
2026-04-22 13:08 -8.73478 115.48754 12233 ft 346 kts 80°
2026-04-22 13:08 -8.72763 115.51075 13044 ft 348 kts 63°
2026-04-22 13:08 -8.71394 115.53065 13808 ft 353 kts 46°
2026-04-22 13:09 -8.69643 115.54821 14505 ft 357 kts 45°
2026-04-22 13:09 -8.67866 115.56585 15207 ft 361 kts 45°
2026-04-22 13:09 -8.66066 115.58377 15889 ft 365 kts 45°
2026-04-22 13:09 -8.64253 115.60188 16564 ft 369 kts 45°
2026-04-22 13:10 -8.62423 115.62021 17217 ft 373 kts 45°
2026-04-22 13:10 -8.60572 115.63876 17864 ft 377 kts 45°
2026-04-22 13:10 -8.58704 115.65749 18464 ft 380 kts 45°
2026-04-22 13:10 -8.56863 115.67635 19005 ft 384 kts 48°
2026-04-22 13:11 -8.55231 115.69780 19544 ft 387 kts 57°
2026-04-22 13:11 -8.53931 115.72171 20093 ft 391 kts 65°
2026-04-22 13:11 -8.52932 115.74740 20618 ft 395 kts 69°
2026-04-22 13:11 -8.51963 115.77322 21128 ft 399 kts 69°
2026-04-22 13:12 -8.50965 115.79960 21654 ft 402 kts 68°
2026-04-22 13:12 -8.49960 115.82608 22173 ft 406 kts 68°
2026-04-22 13:12 -8.48944 115.85281 22689 ft 409 kts 68°
2026-04-22 13:12 -8.47932 115.87942 23183 ft 413 kts 68°
2026-04-22 13:13 -8.46897 115.90665 23649 ft 417 kts 68°
2026-04-22 13:13 -8.45855 115.93404 24090 ft 419 kts 68°
2026-04-22 13:13 -8.44807 115.96159 24528 ft 421 kts 68°
2026-04-22 13:13 -8.43754 115.98930 24947 ft 424 kts 68°
2026-04-22 13:14 -8.42694 116.01722 25378 ft 427 kts 68°
2026-04-22 13:14 -8.41631 116.04524 25779 ft 429 kts 68°
2026-04-22 13:14 -8.40559 116.07347 26180 ft 431 kts 68°
2026-04-22 13:14 -8.39481 116.10183 26571 ft 434 kts 68°
2026-04-22 13:15 -8.38395 116.13041 26960 ft 437 kts 68°
2026-04-22 13:15 -8.37319 116.15873 27331 ft 439 kts 68°
2026-04-22 13:15 -8.36222 116.18758 27706 ft 442 kts 68°
2026-04-22 13:15 -8.35118 116.21660 28074 ft 444 kts 68°
2026-04-22 13:16 -8.34008 116.24578 28439 ft 446 kts 68°
2026-04-22 13:16 -8.32892 116.27509 28782 ft 449 kts 68°
2026-04-22 13:16 -8.31770 116.30458 29126 ft 451 kts 68°
2026-04-22 13:16 -8.30643 116.33420 29481 ft 453 kts 68°
2026-04-22 13:17 -8.29511 116.36395 29809 ft 456 kts 68°
2026-04-22 13:17 -8.28373 116.39389 30114 ft 458 kts 68°
2026-04-22 13:17 -8.27244 116.42358 30411 ft 460 kts 68°
2026-04-22 13:17 -8.26095 116.45378 30701 ft 462 kts 68°
2026-04-22 13:18 -8.24939 116.48416 31011 ft 464 kts 68°
2026-04-22 13:18 -8.23721 116.51428 31363 ft 464 kts 63°
2026-04-22 13:18 -8.22029 116.54191 31751 ft 463 kts 52°
2026-04-22 13:18 -8.19841 116.56567 32111 ft 462 kts 41°
2026-04-22 13:19 -8.17242 116.58468 32486 ft 462 kts 30°
2026-04-22 13:19 -8.14329 116.59828 32840 ft 462 kts 19°
2026-04-22 13:19 -8.11253 116.60587 33170 ft 463 kts
2026-04-22 13:19 -8.08040 116.60835 33531 ft 463 kts
2026-04-22 13:20 -8.04829 116.61019 33873 ft 462 kts
2026-04-22 13:20 -8.01622 116.61207 34195 ft 461 kts
2026-04-22 13:20 -7.98415 116.61398 34497 ft 461 kts
2026-04-22 13:20 -7.95212 116.61589 34796 ft 460 kts
2026-04-22 13:21 -7.92022 116.61780 35108 ft 459 kts
2026-04-22 13:21 -7.88832 116.61970 35408 ft 459 kts
2026-04-22 13:21 -7.85650 116.62160 35695 ft 458 kts
2026-04-22 13:21 -7.82510 116.62347 35985 ft 458 kts
2026-04-22 13:22 -7.79331 116.62537 36289 ft 457 kts
2026-04-22 13:22 -7.76154 116.62726 36582 ft 457 kts
2026-04-22 13:22 -7.72985 116.62915 36866 ft 457 kts
2026-04-22 13:22 -7.69817 116.63104 37153 ft 456 kts
2026-04-22 13:23 -7.66653 116.63293 37440 ft 455 kts
2026-04-22 13:23 -7.63491 116.63481 37707 ft 455 kts
2026-04-22 13:23 -7.60373 116.63667 37969 ft 454 kts
2026-04-22 13:23 -7.57226 116.63915 38234 ft 454 kts
2026-04-22 13:24 -7.54158 116.64639 38470 ft 453 kts 19°
2026-04-22 13:24 -7.51279 116.65891 38666 ft 453 kts 29°
2026-04-22 13:24 -7.48654 116.67637 38822 ft 453 kts 39°
2026-04-22 13:25 -7.44339 116.72249 38914 ft 452 kts 50°
2026-04-22 13:25 -7.40293 116.77097 38918 ft 452 kts 50°
2026-04-22 13:26 -7.36266 116.81900 38920 ft 452 kts 50°
2026-04-22 13:26 -7.32209 116.86736 38916 ft 452 kts 50°
2026-04-22 13:27 -7.28149 116.91575 38913 ft 452 kts 50°
2026-04-22 13:27 -7.24083 116.96419 38918 ft 453 kts 50°
2026-04-22 13:28 -7.20017 117.01263 38920 ft 453 kts 50°
2026-04-22 13:28 -7.15971 117.06081 38924 ft 454 kts 50°
2026-04-22 13:29 -7.11898 117.10930 38925 ft 454 kts 50°
2026-04-22 13:29 -7.07820 117.15783 38928 ft 454 kts 50°
2026-04-22 13:30 -7.03740 117.20637 38926 ft 454 kts 50°
2026-04-22 13:30 -6.99691 117.25452 38924 ft 454 kts 50°
2026-04-22 13:31 -6.95613 117.30300 38925 ft 454 kts 50°
2026-04-22 13:31 -6.91537 117.35144 38923 ft 453 kts 50°
2026-04-22 13:32 -6.87461 117.39987 38920 ft 453 kts 50°
2026-04-22 13:32 -6.83414 117.44794 38919 ft 453 kts 50°
2026-04-22 13:33 -6.79343 117.49629 38915 ft 453 kts 50°
2026-04-22 13:33 -6.75276 117.54458 38917 ft 452 kts 50°
2026-04-22 13:34 -6.71208 117.59285 38913 ft 452 kts 50°
2026-04-22 13:34 -6.67013 117.63987 38913 ft 452 kts 44°
2026-04-22 13:35 -6.62415 117.68232 38911 ft 452 kts 43°
2026-04-22 13:35 -6.57788 117.72513 38911 ft 452 kts 43°
2026-04-22 13:36 -6.53166 117.76789 38913 ft 452 kts 43°
2026-04-22 13:36 -6.48541 117.81065 38913 ft 452 kts 43°
2026-04-22 13:37 -6.43913 117.85342 38911 ft 452 kts 43°
2026-04-22 13:37 -6.39315 117.89590 38913 ft 452 kts 43°
2026-04-22 13:38 -6.34682 117.93868 38907 ft 453 kts 43°
2026-04-22 13:38 -6.30038 117.98157 38510 ft 454 kts 43°
2026-04-22 13:38 -6.27713 118.00303 38243 ft 453 kts 43°
2026-04-22 13:39 -6.25389 118.02449 37821 ft 455 kts 43°
2026-04-22 13:39 -6.23043 118.04613 37057 ft 459 kts 43°
2026-04-22 13:39 -6.20712 118.06764 36251 ft 463 kts 43°
2026-04-22 13:39 -6.18340 118.08952 35472 ft 465 kts 43°
2026-04-22 13:40 -6.15958 118.11150 34695 ft 466 kts 43°
2026-04-22 13:40 -6.13565 118.13357 33924 ft 468 kts 43°
2026-04-22 13:40 -6.11161 118.15575 33094 ft 469 kts 43°
2026-04-22 13:40 -6.08760 118.17788 32252 ft 469 kts 43°
2026-04-22 13:41 -6.06353 118.20007 31433 ft 469 kts 43°
2026-04-22 13:41 -6.03950 118.22223 30632 ft 469 kts 43°
2026-04-22 13:41 -6.01595 118.24394 30049 ft 463 kts 43°
2026-04-22 13:41 -5.99241 118.26564 29420 ft 456 kts 43°
2026-04-22 13:42 -5.96923 118.28700 28821 ft 449 kts 43°
2026-04-22 13:42 -5.94644 118.30801 28233 ft 442 kts 43°
2026-04-22 13:42 -5.92390 118.32878 27645 ft 436 kts 43°
2026-04-22 13:42 -5.90173 118.34921 27062 ft 431 kts 43°
2026-04-22 13:43 -5.87980 118.36942 26497 ft 426 kts 43°
2026-04-22 13:43 -5.85806 118.38945 25921 ft 421 kts 43°
2026-04-22 13:43 -5.83654 118.40927 25342 ft 418 kts 43°
2026-04-22 13:43 -5.81549 118.42867 24774 ft 415 kts 43°
2026-04-22 13:44 -5.79434 118.44815 24204 ft 412 kts 43°
2026-04-22 13:44 -5.77336 118.46751 23640 ft 409 kts 43°
2026-04-22 13:44 -5.75252 118.48678 23006 ft 406 kts 43°
2026-04-22 13:44 -5.73193 118.50582 22502 ft 399 kts 43°
2026-04-22 13:45 -5.71161 118.52459 21956 ft 395 kts 43°
2026-04-22 13:45 -5.69152 118.54315 21410 ft 390 kts 43°
2026-04-22 13:45 -5.67165 118.56150 20863 ft 386 kts 43°
2026-04-22 13:45 -5.65197 118.57968 20323 ft 383 kts 43°
2026-04-22 13:46 -5.63250 118.59767 19773 ft 380 kts 43°
2026-04-22 13:46 -5.61311 118.61557 19223 ft 377 kts 43°
2026-04-22 13:46 -5.59387 118.63334 18680 ft 375 kts 43°
2026-04-22 13:46 -5.57471 118.65103 18131 ft 373 kts 43°
2026-04-22 13:47 -5.55599 118.66831 17605 ft 369 kts 43°
2026-04-22 13:47 -5.53723 118.68562 17082 ft 365 kts 43°
2026-04-22 13:47 -5.51865 118.70277 16554 ft 361 kts 43°
2026-04-22 13:47 -5.50023 118.71977 16043 ft 358 kts 43°
2026-04-22 13:48 -5.48202 118.73666 15488 ft 356 kts 45°
2026-04-22 13:48 -5.46755 118.75676 14826 ft 358 kts 65°
2026-04-22 13:48 -5.45998 118.78065 14487 ft 359 kts 75°
2026-04-22 13:48 -5.45371 118.80490 14250 ft 358 kts 76°
2026-04-22 13:49 -5.44751 118.82906 13891 ft 359 kts 76°
2026-04-22 13:49 -5.44127 118.85340 13306 ft 359 kts 76°
2026-04-22 13:49 -5.43508 118.87751 12786 ft 355 kts 76°
2026-04-22 13:49 -5.42896 118.90133 12331 ft 349 kts 76°
2026-04-22 13:50 -5.42496 118.91687 12010 ft 346 kts 76°
2026-04-22 13:50 -5.41702 118.94767 11328 ft 342 kts 76°
2026-04-22 13:50 -5.41109 118.97070 10818 ft 340 kts 76°
2026-04-22 13:50 -5.40519 118.99359 10303 ft 338 kts 76°
2026-04-22 13:51 -5.39943 119.01593 10146 ft 323 kts 76°
2026-04-22 13:51 -5.39392 119.03731 10027 ft 309 kts 75°
2026-04-22 13:51 -5.38866 119.05770 9780 ft 296 kts 75°
2026-04-22 13:51 -5.38357 119.07744 9383 ft 286 kts 76°
2026-04-22 13:52 -5.37855 119.09688 9242 ft 293 kts 76°
2026-04-22 13:52 -5.37335 119.11703 8938 ft 301 kts 76°
2026-04-22 13:52 -5.36824 119.13680 8829 ft 293 kts 76°
2026-04-22 13:52 -5.36316 119.15648 8480 ft 290 kts 76°
2026-04-22 13:53 -5.35848 119.17460 8022 ft 287 kts 76°
2026-04-22 13:53 -5.35349 119.19394 7420 ft 286 kts 76°
2026-04-22 13:53 -5.35019 119.20670 7093 ft 283 kts 76°
2026-04-22 13:53 -5.34364 119.23208 6578 ft 280 kts 76°
2026-04-22 13:54 -5.33876 119.25097 6188 ft 279 kts 76°
2026-04-22 13:54 -5.33554 119.26340 5929 ft 278 kts 76°
2026-04-22 13:54 -5.33071 119.28211 5548 ft 276 kts 76°
2026-04-22 13:54 -5.32591 119.30068 5172 ft 274 kts 76°
2026-04-22 13:55 -5.32114 119.31912 4794 ft 273 kts 76°
2026-04-22 13:55 -5.31639 119.33750 4408 ft 271 kts 76°
2026-04-22 13:55 -5.31018 119.36153 4057 ft 265 kts 76°
2026-04-22 13:55 -5.30709 119.37348 4005 ft 258 kts 76°
2026-04-22 13:56 -5.30270 119.39043 3984 ft 243 kts 76°
2026-04-22 13:56 -5.29858 119.40638 3988 ft 229 kts 76°
2026-04-22 13:56 -5.29326 119.42043 3982 ft 214 kts 58°
2026-04-22 13:56 -5.28405 119.43107 3989 ft 198 kts 41°
2026-04-22 13:57 -5.27337 119.43885 3969 ft 182 kts 33°
2026-04-22 13:57 -5.26274 119.44527 3744 ft 173 kts 31°
2026-04-22 13:57 -5.25272 119.45106 3514 ft 160 kts 31°
2026-04-22 13:57 -5.24351 119.45640 3330 ft 146 kts 31°
2026-04-22 13:58 -5.23510 119.46128 3139 ft 136 kts 31°
2026-04-22 13:58 -5.22674 119.46614 2965 ft 140 kts 31°
2026-04-22 13:58 -5.21839 119.47097 2789 ft 138 kts 31°
2026-04-22 13:58 -5.21010 119.47578 2613 ft 138 kts 31°
2026-04-22 13:59 -5.20180 119.48059 2433 ft 138 kts 31°
2026-04-22 13:59 -5.19353 119.48538 2254 ft 137 kts 31°
2026-04-22 13:59 -5.18541 119.49009 2085 ft 137 kts 31°
2026-04-22 13:59 -5.17718 119.49486 1911 ft 136 kts 31°
2026-04-22 14:00 -5.16898 119.49961 1739 ft 136 kts 31°
2026-04-22 14:00 -5.16078 119.50437 1560 ft 136 kts 31°
2026-04-22 14:00 -5.15263 119.50909 1388 ft 135 kts 31°
2026-04-22 14:00 -5.14456 119.51376 1236 ft 133 kts 31°
2026-04-22 14:01 -5.13659 119.51839 1064 ft 132 kts 31°
2026-04-22 14:01 -5.12866 119.52298 898 ft 131 kts 31°
2026-04-22 14:01 -5.12080 119.52754 715 ft 131 kts 31°
2026-04-22 14:01 -5.11301 119.53215 527 ft 129 kts 31°
2026-04-22 14:02 -5.10537 119.53654 372 ft 129 kts 30°
2026-04-22 14:02 -5.09758 119.54097 196 ft 128 kts 29°
2026-04-22 14:02 -5.08988 119.54542 51 ft 127 kts 28°
2026-04-22 14:02 -5.08365 119.54903 38 ft 64 kts 31°
2026-04-22 14:03 -5.08168 119.54988 39 ft 20 kts 340°
2026-04-22 14:03 -5.08124 119.54949 40 ft 4 kts 299°
2026-04-22 14:03 -5.08114 119.54930 40 ft 0 kts 298°
2026-04-22 14:04 -5.08109 119.54920 40 ft 2 kts 298°
2026-04-22 14:04 -5.08109 119.54919 38 ft 0 kts 298°
2026-04-22 14:05 -5.08079 119.54864 40 ft 10 kts 299°
2026-04-22 14:06 -5.08053 119.54818 40 ft 0 kts 300°
2026-04-22 14:06 -5.08050 119.54813 41 ft 3 kts 300°
2026-04-22 14:06 -5.08032 119.54782 41 ft 6 kts 299°
2026-04-22 14:06 -5.08006 119.54736 41 ft 9 kts 300°
2026-04-22 14:07 -5.07977 119.54700 41 ft 9 kts 314°
2026-04-22 14:07 -5.07946 119.54652 38 ft 6 kts 298°
2026-04-22 14:07 -5.07935 119.54632 38 ft 2 kts 300°
2026-04-22 14:07 -5.07933 119.54629 39 ft 0 kts 300°